Location: Curicchi
(45.0167°N, 12.0500°E)
Time: 03:02:57
(UTC+00:00)

Envisat - Pass Details

Date: 01 August 2021
Orbit: 764 x 766 km, 98.2° (Epoch: 22 September)

Event Time Altitude Azimuth Distance (km) Brightness Sun altitude
Rises 03:04:14 0° 33° (NNE) 3,243 7.8 -8.8°
Reaches altitude 10° 03:07:55 10° 60° (ENE) 2,309 7.2 -8.3°
Maximum altitude 03:10:14 13° 88° (E) 2,097 6.2 -7.9°
Drops below altitude 10° 03:12:33 10° 115° (ESE) 2,301 5.9 -7.6°
Sets 03:16:12 0° 143° (SE) 3,220 6.3 -7.1°
